Tracking 31027 objects as of 19-Jul-2025
HD Live streaming from Space Station
objects crossing your sky now

ICEYE-X31

Track ICEYE-X31 now!
10-day predictions


NORAD ID: 58288
Int'l Code: 2023-174AJ
Perigee: 502.1 km
Apogee: 508.6 km
Inclination: 97.4 °
Period: 94.6 minutes
Semi major axis: 6876 km
RCS: Unknown
Launch date: November 11, 2023
Source: (FIN)
Launch site: AIR FORCE WESTERN TEST RANGE (AFWTR)
Your satellite tracking list
FENGYUN 1C DEB
Track 1 satellite(s)




NASA's NSSDC Master Catalog

Two Line Element Set (TLE):
1 58288U 23174AJ  25199.86267640  .00009863  00000-0  42806-3 0  9992
2 58288  97.4154 273.0064 0004736  75.6627 284.5135 15.22523070 93847
Source of the keplerian elements: AFSPC